timestamp,surface_pressure_avg,surface_temp_avg,battery_voltage,lat,long
2018-11-28 00:00:00+00:00,259.6331,4.7,12.97,47.84626,-54.09684
2018-11-28 00:10:00+00:00,267.0797,4.7,12.89,47.84626,-54.09684
2018-11-28 00:20:00+00:00,270.0214,4.7,12.97,47.84626,-54.09684
2018-11-28 00:30:00+00:00,274.6131,4.7,13.05,47.84626,-54.09684
2018-11-28 00:40:00+00:00,287.1014,4.79,13.05,47.84626,-54.09684
2018-11-28 00:50:00+00:00,291.5215,4.8,13.05,47.84626,-54.09684
2018-11-28 01:00:00+00:00,293.3796,4.76,12.97,47.84626,-54.09684
2018-11-28 01:10:00+00:00,302.538,4.79,12.89,47.84626,-54.09684
2018-11-28 01:20:00+00:00,315.1997,4.73,12.97,47.84626,-54.09684
2018-11-28 01:30:00+00:00,316.2429,4.68,12.97,47.84626,-54.09684
2018-11-28 01:40:00+00:00,315.388,4.6,13.05,47.84626,-54.09684
2018-11-28 01:50:00+00:00,326.223,4.6,13.05,47.84626,-54.09684
2018-11-28 02:00:00+00:00,338.1946,4.64,12.97,47.84626,-54.09684
2018-11-28 02:10:00+00:00,340.6862,4.6,12.89,47.84626,-54.09684
2018-11-28 02:20:00+00:00,342.5413,4.6,12.97,47.84626,-54.09684
2018-11-28 02:30:00+00:00,353.038,4.59,12.97,47.84626,-54.09684
2018-11-28 02:40:00+00:00,352.2562,4.57,12.97,47.84626,-54.09684
2018-11-28 02:50:00+00:00,347.418,4.5,12.97,47.84626,-54.09684
2018-11-28 03:00:00+00:00,349.6346,4.5,12.97,47.84626,-54.09684
2018-11-28 03:10:00+00:00,354.2444,4.51,12.81,47.84626,-54.09684
2018-11-28 03:20:00+00:00,355.9547,4.58,12.97,47.84626,-54.09684
2018-11-28 03:30:00+00:00,351.2429,4.6,12.97,47.84626,-54.09684
2018-11-28 03:40:00+00:00,348.6713,4.56,12.97,47.84626,-54.09684
2018-11-28 03:50:00+00:00,344.5913,4.5,12.97,47.84626,-54.09684
2018-11-28 04:00:00+00:00,343.5947,4.5,12.89,47.84626,-54.09684
2018-11-28 04:10:00+00:00,342.1479,4.56,12.81,47.84626,-54.09684
2018-11-28 04:20:00+00:00,337.8079,4.58,12.89,47.84626,-54.09684
2018-11-28 04:30:00+00:00,343.6913,4.78,12.89,47.84626,-54.09684
2018-11-28 04:40:00+00:00,347.1495,4.9,12.97,47.84626,-54.09684
2018-11-28 04:50:00+00:00,340.2147,4.9,12.97,47.84626,-54.09684
2018-11-28 05:00:00+00:00,330.3312,4.9,12.89,47.84626,-54.09684
2018-11-28 05:10:00+00:00,331.403,4.8,12.81,47.84626,-54.09684
2018-11-28 05:20:00+00:00,327.6912,4.8,12.89,47.84626,-54.09684
2018-11-28 05:30:00+00:00,315.3796,4.64,12.89,47.84626,-54.09684
2018-11-28 05:40:00+00:00,303.9396,4.58,12.97,47.84626,-54.09684
2018-11-28 05:50:00+00:00,298.7646,4.6,12.97,47.84626,-54.09684
2018-11-28 06:00:00+00:00,288.8981,4.6,12.89,47.84626,-54.09684
2018-11-28 06:10:00+00:00,278.7513,4.6,12.81,47.84626,-54.09684
2018-11-28 06:20:00+00:00,269.7364,4.6,12.89,47.84626,-54.09684
2018-11-28 06:30:00+00:00,262.1781,4.6,12.89,47.84626,-54.09684
2018-11-28 06:40:00+00:00,249.2047,4.6,12.89,47.84626,-54.09684
2018-11-28 06:50:00+00:00,238.4298,4.6,12.97,47.84626,-54.09684
2018-11-28 07:00:00+00:00,228.0048,4.6,12.89,47.84626,-54.09684
2018-11-28 07:10:00+00:00,214.5447,4.6,12.81,47.84626,-54.09684
2018-11-28 07:20:00+00:00,207.9148,4.6,12.89,47.84626,-54.09684
2018-11-28 07:30:00+00:00,208.0281,4.6,12.89,47.84626,-54.09684
2018-11-28 07:40:00+00:00,203.4631,4.6,12.89,47.84626,-54.09684
2018-11-28 07:50:00+00:00,200.0981,4.6,12.89,47.84626,-54.09684
2018-11-28 08:00:00+00:00,206.1898,4.6,12.81,47.84626,-54.09684
2018-11-28 08:10:00+00:00,210.8114,4.6,12.81,47.84626,-54.09684
2018-11-28 08:20:00+00:00,203.9714,4.6,12.89,47.84626,-54.09684
2018-11-28 08:30:00+00:00,201.5481,4.6,12.89,47.84626,-54.09684
2018-11-28 08:40:00+00:00,212.7314,4.6,12.89,47.84626,-54.09684
2018-11-28 08:50:00+00:00,218.8614,4.6,12.89,47.84626,-54.09684
2018-11-28 09:00:00+00:00,215.1681,4.6,12.81,47.84626,-54.09684
2018-11-28 09:10:00+00:00,215.5898,4.6,12.81,47.84626,-54.09684
2018-11-28 09:20:00+00:00,225.6564,4.6,12.89,47.84626,-54.09684
2018-11-28 09:30:00+00:00,232.2447,4.6,12.89,47.84626,-54.09684
2018-11-28 09:40:00+00:00,230.8247,4.6,12.89,47.84626,-54.09684
2018-11-28 09:50:00+00:00,231.1547,4.6,12.89,47.84626,-54.09684
2018-11-28 10:00:00+00:00,236.1597,4.6,12.81,47.84626,-54.09684
2018-11-28 10:10:00+00:00,238.0414,4.6,12.81,47.84626,-54.09684
2018-11-28 10:20:00+00:00,235.4431,4.6,12.89,47.84626,-54.09684
2018-11-28 10:30:00+00:00,239.4514,4.6,12.89,47.84626,-54.09684
2018-11-28 10:40:00+00:00,246.3831,4.6,12.89,47.84626,-54.09684
2018-11-28 10:50:00+00:00,251.4165,4.59,12.89,47.84626,-54.09684
2018-11-28 11:00:00+00:00,247.963,4.59,12.81,47.84626,-54.09684
2018-11-28 11:10:00+00:00,251.8581,4.5,12.81,47.84626,-54.09684
2018-11-28 11:20:00+00:00,263.4365,4.53,12.89,47.84626,-54.09684
2018-11-28 11:30:00+00:00,272.8182,4.56,12.89,47.84626,-54.09684
2018-11-28 11:40:00+00:00,268.1981,4.5,12.89,47.84626,-54.09684
2018-11-28 11:50:00+00:00,268.9864,4.5,12.97,47.84626,-54.09684
2018-11-28 12:00:00+00:00,276.4348,4.5,12.89,47.84626,-54.09684
2018-11-28 12:10:00+00:00,281.4963,4.5,12.81,47.84626,-54.09684
2018-11-28 12:20:00+00:00,280.6031,4.48,12.89,47.84626,-54.09684
2018-11-28 12:30:00+00:00,287.8281,4.5,12.97,47.84626,-54.09684
2018-11-28 12:40:00+00:00,296.3147,4.5,12.97,47.84626,-54.09684
2018-11-28 12:50:00+00:00,300.4947,4.5,13.05,47.84626,-54.09684
2018-11-28 13:00:00+00:00,308.0281,4.49,12.97,47.84626,-54.09684
2018-11-28 13:10:00+00:00,320.4596,4.58,12.97,47.84626,-54.09684
2018-11-28 13:20:00+00:00,324.5414,4.8,13.13,47.84626,-54.09684
2018-11-28 13:30:00+00:00,326.3431,4.7,13.21,47.84626,-54.09684
2018-11-28 13:40:00+00:00,334.108,4.86,13.29,47.84626,-54.09684
2018-11-28 13:50:00+00:00,346.5013,4.8,13.29,47.84626,-54.09684
2018-11-28 14:00:00+00:00,353.748,4.8,13.21,47.84626,-54.09684
2018-11-28 14:10:00+00:00,358.303,4.79,13.13,47.84626,-54.09684
2018-11-28 14:20:00+00:00,360.5797,4.7,13.29,47.84626,-54.09684
2018-11-28 14:30:00+00:00,369.2729,4.7,13.44,47.84626,-54.09684
2018-11-28 14:40:00+00:00,377.6746,4.7,13.53,47.84626,-54.09684
2018-11-28 14:50:00+00:00,381.8696,4.7,13.53,47.84626,-54.09684
2018-11-28 15:00:00+00:00,386.2913,4.7,13.44,47.84626,-54.09684
2018-11-28 15:10:00+00:00,383.4229,4.65,13.37,47.84626,-54.09684
2018-11-28 15:20:00+00:00,384.5946,4.61,13.44,47.84626,-54.09684
2018-11-28 15:30:00+00:00,396.1662,4.69,13.37,47.84626,-54.09684
2018-11-28 15:40:00+00:00,398.1779,4.7,13.44,47.84626,-54.09684
2018-11-28 15:50:00+00:00,389.7345,4.6,13.44,47.84626,-54.09684
2018-11-28 16:00:00+00:00,389.053,4.6,13.29,47.84626,-54.09684
2018-11-28 16:10:00+00:00,391.4029,4.8,13.21,47.84626,-54.09684
2018-11-28 16:20:00+00:00,389.2029,4.83,13.29,47.84626,-54.09684
2018-11-28 16:30:00+00:00,388.3146,4.8,13.29,47.84626,-54.09684
2018-11-28 16:40:00+00:00,382.8997,4.8,13.29,47.84626,-54.09684
2018-11-28 16:50:00+00:00,377.4513,4.8,13.29,47.84626,-54.09684
2018-11-28 17:00:00+00:00,371.283,4.8,13.21,47.84626,-54.09684
2018-11-28 17:10:00+00:00,365.5513,4.8,13.13,47.84626,-54.09684
2018-11-28 17:20:00+00:00,361.298,4.8,13.13,47.84626,-54.09684
2018-11-28 17:30:00+00:00,356.2663,4.8,13.13,47.84626,-54.09684
2018-11-28 17:40:00+00:00,345.6413,4.78,13.13,47.84626,-54.09684
2018-11-28 17:50:00+00:00,344.993,4.7,13.13,47.84626,-54.09684
2018-11-28 18:00:00+00:00,338.238,4.6,13.05,47.84626,-54.09684
2018-11-28 18:10:00+00:00,324.2764,4.6,12.97,47.84626,-54.09684
2018-11-28 18:20:00+00:00,309.6946,4.6,13.05,47.84626,-54.09684
2018-11-28 18:30:00+00:00,305.408,4.6,12.97,47.84626,-54.09684
2018-11-28 18:40:00+00:00,299.018,4.6,13.05,47.84626,-54.09684
2018-11-28 18:50:00+00:00,287.858,4.6,13.05,47.84626,-54.09684
2018-11-28 19:00:00+00:00,280.3597,4.64,12.97,47.84626,-54.09684
2018-11-28 19:10:00+00:00,269.6147,4.62,12.89,47.84626,-54.09684
2018-11-28 19:20:00+00:00,258.7214,4.66,12.97,47.84626,-54.09684
2018-11-28 19:30:00+00:00,253.8564,4.66,12.97,47.84626,-54.09684
2018-11-28 19:40:00+00:00,251.4281,4.6,12.97,47.84626,-54.09684
2018-11-28 19:50:00+00:00,237.3947,4.51,12.97,47.84626,-54.09684
2018-11-28 20:00:00+00:00,227.7765,4.6,12.89,47.84626,-54.09684
2018-11-28 20:10:00+00:00,231.4281,4.6,12.81,47.84626,-54.09684
2018-11-28 20:20:00+00:00,237.7914,4.6,12.89,47.84626,-54.09684
2018-11-28 20:30:00+00:00,230.5798,4.6,12.89,47.84626,-54.09684
2018-11-28 20:40:00+00:00,223.8198,4.6,12.97,47.84626,-54.09684
2018-11-28 20:50:00+00:00,228.3514,4.58,12.97,47.84626,-54.09684
2018-11-28 21:00:00+00:00,229.6614,4.6,12.89,47.84626,-54.09684
2018-11-28 21:10:00+00:00,229.2831,4.6,12.81,47.84626,-54.09684
2018-11-28 21:30:00+00:00,244.7997,4.6,12.89,47.84626,-54.09684
2018-11-28 21:40:00+00:00,245.2231,4.51,12.97,47.84626,-54.09684
2018-11-28 21:50:00+00:00,247.2947,4.5,12.97,47.84626,-54.09684
2018-11-28 22:00:00+00:00,254.6564,4.53,12.89,47.84626,-54.09684
2018-11-28 22:10:00+00:00,254.6264,4.6,12.81,47.84626,-54.09684
2018-11-28 22:20:00+00:00,250.6214,4.6,12.89,47.84626,-54.09684
2018-11-28 22:30:00+00:00,246.1648,4.6,12.89,47.84626,-54.09684
2018-11-28 22:40:00+00:00,244.3332,4.57,12.89,47.84626,-54.09684
2018-11-28 22:50:00+00:00,240.8764,4.59,12.97,47.84626,-54.09684
2018-11-28 23:00:00+00:00,242.1598,4.59,12.89,47.84626,-54.09684
2018-11-28 23:10:00+00:00,247.4665,4.5,12.81,47.84626,-54.09684
2018-11-28 23:20:00+00:00,248.4164,4.51,12.89,47.84626,-54.09684
2018-11-28 23:30:00+00:00,248.1464,4.5,12.89,47.84626,-54.09684
2018-11-28 23:40:00+00:00,255.0581,4.5,12.89,47.84626,-54.09684
2018-11-28 23:50:00+00:00,261.1197,4.6,12.97,47.84626,-54.09684
